Year,Month,Day,Hour,Minute,Value (Times are PST for windspeed in km/hr)
2014,03,17,00,00,8.80
2014,03,17,00,01,17.70
2014,03,17,00,02,15.90
2014,03,17,00,03,10.40
2014,03,17,00,04,13.90
2014,03,17,00,05,8.60
2014,03,17,00,06,8.00
2014,03,17,00,07,8.80
2014,03,17,00,08,12.50
2014,03,17,00,09,8.50
2014,03,17,00,10,5.00
2014,03,17,00,11,5.30
2014,03,17,00,12,4.90
2014,03,17,00,13,4.50
2014,03,17,00,14,7.20
2014,03,17,00,15,3.30
2014,03,17,00,16,5.40
2014,03,17,00,17,5.30
2014,03,17,00,18,9.10
2014,03,17,00,19,6.90
2014,03,17,00,20,8.30
2014,03,17,00,21,12.80
2014,03,17,00,22,10.40
2014,03,17,00,23,5.80
2014,03,17,00,24,3.80
2014,03,17,00,25,6.10
2014,03,17,00,26,5.60
2014,03,17,00,27,5.70
2014,03,17,00,28,5.00
2014,03,17,00,29,6.70
2014,03,17,00,30,3.80
2014,03,17,00,31,6.80
2014,03,17,00,32,6.60
2014,03,17,00,33,6.80
2014,03,17,00,34,10.40
2014,03,17,00,35,8.90
2014,03,17,00,36,8.40
2014,03,17,00,37,11.60
2014,03,17,00,38,10.90
2014,03,17,00,39,8.00
2014,03,17,00,40,6.60
2014,03,17,00,41,6.70
2014,03,17,00,42,9.00
2014,03,17,00,43,14.90
2014,03,17,00,44,8.80
2014,03,17,00,45,8.40
2014,03,17,00,46,12.60
2014,03,17,00,47,10.50
2014,03,17,00,48,9.30
2014,03,17,00,49,6.80
2014,03,17,00,50,6.30
2014,03,17,00,51,6.50
2014,03,17,00,52,7.40
2014,03,17,00,53,11.80
2014,03,17,00,54,9.30
2014,03,17,00,55,7.40
2014,03,17,00,56,6.30
2014,03,17,00,57,7.50
2014,03,17,00,58,4.70
2014,03,17,00,59,5.70
2014,03,17,01,00,5.20
2014,03,17,01,01,3.70
2014,03,17,01,02,4.10
2014,03,17,01,03,2.40
2014,03,17,01,04,6.20
2014,03,17,01,05,6.00
2014,03,17,01,06,4.70
2014,03,17,01,07,3.70
2014,03,17,01,08,3.50
2014,03,17,01,09,3.00
2014,03,17,01,10,4.50
2014,03,17,01,11,5.60
2014,03,17,01,12,6.60
2014,03,17,01,13,7.60
2014,03,17,01,14,7.50
2014,03,17,01,15,6.30
2014,03,17,01,16,4.60
2014,03,17,01,17,7.20
2014,03,17,01,18,9.20
2014,03,17,01,19,5.60
2014,03,17,01,20,10.70
2014,03,17,01,21,7.50
2014,03,17,01,22,12.20
2014,03,17,01,23,14.80
2014,03,17,01,24,8.00
2014,03,17,01,25,8.00
2014,03,17,01,26,8.30
2014,03,17,01,27,8.90
2014,03,17,01,28,6.40
2014,03,17,01,29,9.30
2014,03,17,01,30,13.40
2014,03,17,01,31,9.90
2014,03,17,01,32,11.80
2014,03,17,01,33,10.60
2014,03,17,01,34,6.30
2014,03,17,01,35,10.00
2014,03,17,01,36,10.20
2014,03,17,01,37,9.40
2014,03,17,01,38,9.70
2014,03,17,01,39,5.90
2014,03,17,01,40,7.30
2014,03,17,01,41,10.60
2014,03,17,01,42,7.60
2014,03,17,01,43,8.20
2014,03,17,01,44,10.60
2014,03,17,01,45,11.40
2014,03,17,01,46,7.90
2014,03,17,01,47,6.10
2014,03,17,01,48,7.40
2014,03,17,01,49,10.70
2014,03,17,01,50,5.20
2014,03,17,01,51,8.20
2014,03,17,01,52,6.80
2014,03,17,01,53,8.10
2014,03,17,01,54,8.40
2014,03,17,01,55,5.20
2014,03,17,01,56,9.40
2014,03,17,01,57,6.20
2014,03,17,01,58,8.10
2014,03,17,01,59,8.00
2014,03,17,02,00,8.80
2014,03,17,02,01,5.80
2014,03,17,02,02,4.60
2014,03,17,02,03,7.10
2014,03,17,02,04,8.90
2014,03,17,02,05,10.30
2014,03,17,02,06,9.50
2014,03,17,02,07,7.50
2014,03,17,02,08,6.00
2014,03,17,02,09,6.10
2014,03,17,02,10,2.20
2014,03,17,02,11,7.40
2014,03,17,02,12,7.30
2014,03,17,02,13,6.50
2014,03,17,02,14,5.60
2014,03,17,02,15,6.00
2014,03,17,02,16,6.90
2014,03,17,02,17,8.10
2014,03,17,02,18,6.20
2014,03,17,02,19,4.20
2014,03,17,02,20,7.80
2014,03,17,02,21,11.40
2014,03,17,02,22,5.80
2014,03,17,02,23,4.00
2014,03,17,02,24,3.70
2014,03,17,02,25,5.30
2014,03,17,02,26,5.60
2014,03,17,02,27,7.40
2014,03,17,02,28,4.40
2014,03,17,02,29,5.90
2014,03,17,02,30,8.00
2014,03,17,02,31,6.90
2014,03,17,02,32,5.70
2014,03,17,02,33,5.50
2014,03,17,02,34,4.40
2014,03,17,02,35,3.90
2014,03,17,02,36,4.50
2014,03,17,02,37,4.90
2014,03,17,02,38,5.30
2014,03,17,02,39,7.80
2014,03,17,02,40,11.90
2014,03,17,02,41,9.40
2014,03,17,02,42,9.90
2014,03,17,02,43,9.40
2014,03,17,02,44,6.60
2014,03,17,02,45,12.20
2014,03,17,02,46,8.60
2014,03,17,02,47,10.20
2014,03,17,02,48,12.00
2014,03,17,02,49,12.50
2014,03,17,02,50,11.80
2014,03,17,02,51,13.90
2014,03,17,02,52,16.40
2014,03,17,02,53,16.80
2014,03,17,02,54,21.20
2014,03,17,02,55,19.50
2014,03,17,02,56,22.00
2014,03,17,02,57,24.30
2014,03,17,02,58,25.20
2014,03,17,02,59,24.00
2014,03,17,03,00,21.80
2014,03,17,03,01,23.50
2014,03,17,03,02,18.50
2014,03,17,03,03,16.70
2014,03,17,03,04,16.90
2014,03,17,03,05,20.40
2014,03,17,03,06,22.80
2014,03,17,03,07,20.40
2014,03,17,03,08,16.40
2014,03,17,03,09,22.50
2014,03,17,03,10,19.40
2014,03,17,03,11,21.80
2014,03,17,03,12,20.00
2014,03,17,03,13,20.00
2014,03,17,03,14,18.10
2014,03,17,03,15,20.60
2014,03,17,03,16,21.60
2014,03,17,03,17,21.90
2014,03,17,03,18,22.20
2014,03,17,03,19,19.00
2014,03,17,03,20,18.10
2014,03,17,03,21,18.20
2014,03,17,03,22,21.20
2014,03,17,03,23,15.50
2014,03,17,03,24,19.50
2014,03,17,03,25,23.90
2014,03,17,03,26,24.50
2014,03,17,03,27,21.20
2014,03,17,03,28,19.00
2014,03,17,03,29,19.60
2014,03,17,03,30,22.10
2014,03,17,03,31,22.80
2014,03,17,03,32,23.60
2014,03,17,03,33,20.30
2014,03,17,03,34,24.00
2014,03,17,03,35,20.80
2014,03,17,03,36,20.70
2014,03,17,03,37,20.50
2014,03,17,03,38,22.30
2014,03,17,03,39,24.00
2014,03,17,03,40,22.20
2014,03,17,03,41,22.70
2014,03,17,03,42,20.60
2014,03,17,03,43,21.30
2014,03,17,03,44,19.70
2014,03,17,03,45,22.90
2014,03,17,03,46,22.40
2014,03,17,03,47,26.90
2014,03,17,03,48,27.00
2014,03,17,03,49,31.70
2014,03,17,03,50,26.70
2014,03,17,03,51,30.10
2014,03,17,03,52,29.40
2014,03,17,03,53,34.90
2014,03,17,03,54,35.00
2014,03,17,03,55,36.60
2014,03,17,03,56,41.10
2014,03,17,03,57,40.10
2014,03,17,03,58,38.20
2014,03,17,03,59,34.70
2014,03,17,04,00,38.80
2014,03,17,04,01,35.30
2014,03,17,04,02,27.20
2014,03,17,04,03,29.50
2014,03,17,04,04,27.40
2014,03,17,04,05,29.10
2014,03,17,04,06,27.00
2014,03,17,04,07,30.20
2014,03,17,04,08,30.50
2014,03,17,04,09,32.10
2014,03,17,04,10,31.60
2014,03,17,04,11,31.70
2014,03,17,04,12,26.90
2014,03,17,04,13,30.00
2014,03,17,04,14,28.00
2014,03,17,04,15,25.20
2014,03,17,04,16,30.10
2014,03,17,04,17,35.70
2014,03,17,04,18,26.10
2014,03,17,04,19,25.60
2014,03,17,04,20,28.10
2014,03,17,04,21,26.50
2014,03,17,04,22,39.10
2014,03,17,04,23,40.60
2014,03,17,04,24,30.60
2014,03,17,04,25,34.00
2014,03,17,04,26,25.10
2014,03,17,04,27,30.10
2014,03,17,04,28,29.40
2014,03,17,04,29,29.00
2014,03,17,04,30,27.90
2014,03,17,04,31,22.00
2014,03,17,04,32,21.20
2014,03,17,04,33,29.10
2014,03,17,04,34,30.30
2014,03,17,04,35,25.40
2014,03,17,04,36,33.30
2014,03,17,04,37,30.00
2014,03,17,04,38,25.70
2014,03,17,04,39,26.10
2014,03,17,04,40,22.20
2014,03,17,04,41,29.60
2014,03,17,04,42,27.40
2014,03,17,04,43,24.00
2014,03,17,04,44,27.40
2014,03,17,04,45,24.20
2014,03,17,04,46,20.30
2014,03,17,04,47,22.30
2014,03,17,04,48,25.20
2014,03,17,04,49,24.50
2014,03,17,04,50,24.00
2014,03,17,04,51,23.10
2014,03,17,04,52,25.30
2014,03,17,04,53,20.50
2014,03,17,04,54,17.00
2014,03,17,04,55,21.50
2014,03,17,04,56,18.00
2014,03,17,04,57,15.10
2014,03,17,04,58,16.90
2014,03,17,04,59,17.80
2014,03,17,05,00,15.80
2014,03,17,05,01,19.20
2014,03,17,05,02,16.40
2014,03,17,05,03,16.20
2014,03,17,05,04,19.60
2014,03,17,05,05,19.00
2014,03,17,05,06,20.00
2014,03,17,05,07,18.20
2014,03,17,05,08,16.10
2014,03,17,05,09,16.30
2014,03,17,05,10,22.60
2014,03,17,05,11,19.10
2014,03,17,05,12,17.70
2014,03,17,05,13,21.90
2014,03,17,05,14,17.40
2014,03,17,05,15,14.70
2014,03,17,05,16,16.50
2014,03,17,05,17,18.80
2014,03,17,05,18,16.20
2014,03,17,05,19,13.30
2014,03,17,05,20,11.10
2014,03,17,05,21,17.50
2014,03,17,05,22,16.00
2014,03,17,05,23,15.90
2014,03,17,05,24,20.00
2014,03,17,05,25,17.50
2014,03,17,05,26,16.00
2014,03,17,05,27,19.60
2014,03,17,05,28,16.20
2014,03,17,05,29,17.30
2014,03,17,05,30,18.60
2014,03,17,05,31,17.20
2014,03,17,05,32,14.90
2014,03,17,05,33,20.80
2014,03,17,05,34,20.70
2014,03,17,05,35,19.80
2014,03,17,05,36,23.50
2014,03,17,05,37,21.30
2014,03,17,05,38,17.70
2014,03,17,05,39,22.20
2014,03,17,05,40,16.80
2014,03,17,05,41,17.50
2014,03,17,05,42,14.30
2014,03,17,05,43,13.80
2014,03,17,05,44,18.70
2014,03,17,05,45,19.00
2014,03,17,05,46,21.80
2014,03,17,05,47,17.40
2014,03,17,05,48,20.60
2014,03,17,05,49,19.40
2014,03,17,05,50,15.00
2014,03,17,05,51,16.60
2014,03,17,05,52,20.80
2014,03,17,05,53,18.00
2014,03,17,05,54,19.90
2014,03,17,05,55,17.10
2014,03,17,05,56,17.70
2014,03,17,05,57,22.90
2014,03,17,05,58,19.20
2014,03,17,05,59,20.30
2014,03,17,06,00,19.30
2014,03,17,06,01,22.30
2014,03,17,06,02,26.70
2014,03,17,06,03,18.50
2014,03,17,06,04,24.80
2014,03,17,06,05,20.20
2014,03,17,06,06,29.70
2014,03,17,06,07,32.90
2014,03,17,06,08,26.60
2014,03,17,06,09,28.40
2014,03,17,06,10,25.80
2014,03,17,06,11,21.30
2014,03,17,06,12,28.40
2014,03,17,06,13,25.00
2014,03,17,06,14,23.60
2014,03,17,06,15,22.20
2014,03,17,06,16,26.00
2014,03,17,06,17,28.80
2014,03,17,06,18,28.00
2014,03,17,06,19,26.40
2014,03,17,06,20,28.70
2014,03,17,06,21,30.90
2014,03,17,06,22,33.40
2014,03,17,06,23,29.50
2014,03,17,06,24,27.10
2014,03,17,06,25,38.10
2014,03,17,06,26,27.50
2014,03,17,06,27,37.70
2014,03,17,06,28,32.80
2014,03,17,06,29,35.20
2014,03,17,06,30,32.00
2014,03,17,06,31,31.60
2014,03,17,06,32,28.00
2014,03,17,06,33,25.70
2014,03,17,06,34,25.00
2014,03,17,06,35,31.60
2014,03,17,06,36,27.00
2014,03,17,06,37,26.60
2014,03,17,06,38,32.40
2014,03,17,06,39,33.60
2014,03,17,06,40,33.30
2014,03,17,06,41,24.80
2014,03,17,06,42,25.60
2014,03,17,06,43,28.00
2014,03,17,06,44,28.20
2014,03,17,06,45,33.60
2014,03,17,06,46,28.50
2014,03,17,06,47,24.40
2014,03,17,06,48,28.30
2014,03,17,06,49,21.60
2014,03,17,06,50,29.00
2014,03,17,06,51,36.20
2014,03,17,06,52,28.80
2014,03,17,06,53,27.10
2014,03,17,06,54,29.20
2014,03,17,06,55,25.40
2014,03,17,06,56,30.00
2014,03,17,06,57,18.90
2014,03,17,06,58,24.30
2014,03,17,06,59,23.30
2014,03,17,07,00,23.60
2014,03,17,07,01,17.10
2014,03,17,07,02,25.50
2014,03,17,07,03,18.60
2014,03,17,07,04,18.20
2014,03,17,07,05,16.90
2014,03,17,07,06,21.00
2014,03,17,07,07,22.40
2014,03,17,07,08,25.20
2014,03,17,07,09,19.80
2014,03,17,07,10,18.50
2014,03,17,07,11,19.40
2014,03,17,07,12,16.30
2014,03,17,07,13,18.90
2014,03,17,07,14,15.50
2014,03,17,07,15,20.50
2014,03,17,07,16,23.30
2014,03,17,07,17,20.00
2014,03,17,07,18,19.10
2014,03,17,07,19,19.90
2014,03,17,07,20,18.00
2014,03,17,07,21,22.50
2014,03,17,07,22,17.00
2014,03,17,07,23,21.70
2014,03,17,07,24,21.10
2014,03,17,07,25,18.70
2014,03,17,07,26,21.60
2014,03,17,07,27,21.70
2014,03,17,07,28,24.00
2014,03,17,07,29,27.30
2014,03,17,07,30,27.50
2014,03,17,07,31,31.20
2014,03,17,07,32,27.90
2014,03,17,07,33,26.50
2014,03,17,07,34,22.50
2014,03,17,07,35,24.50
2014,03,17,07,36,24.00
2014,03,17,07,37,21.90
2014,03,17,07,38,24.30
2014,03,17,07,39,23.40
2014,03,17,07,40,23.30
2014,03,17,07,41,18.60
2014,03,17,07,42,18.30
2014,03,17,07,43,17.80
2014,03,17,07,44,15.60
2014,03,17,07,45,17.50
2014,03,17,07,46,15.60
2014,03,17,07,47,13.90
2014,03,17,07,48,14.50
2014,03,17,07,49,15.40
2014,03,17,07,50,9.80
2014,03,17,07,51,12.00
2014,03,17,07,52,13.40
2014,03,17,07,53,14.50
2014,03,17,07,54,11.80
2014,03,17,07,55,9.10
2014,03,17,07,56,16.20
2014,03,17,07,57,13.70
2014,03,17,07,58,12.20
2014,03,17,07,59,15.50
2014,03,17,08,00,14.90
2014,03,17,08,01,14.50
2014,03,17,08,02,17.60
2014,03,17,08,03,15.30
2014,03,17,08,04,18.00
2014,03,17,08,05,18.90
2014,03,17,08,06,18.80
2014,03,17,08,07,17.50
2014,03,17,08,08,19.40
2014,03,17,08,09,15.70
2014,03,17,08,10,19.30
2014,03,17,08,11,18.60
2014,03,17,08,12,20.00
2014,03,17,08,13,18.60
2014,03,17,08,14,17.90
2014,03,17,08,15,17.40
2014,03,17,08,16,17.40
2014,03,17,08,17,13.10
2014,03,17,08,18,14.60
2014,03,17,08,19,11.40
2014,03,17,08,20,12.20
2014,03,17,08,21,12.20
2014,03,17,08,22,11.00
2014,03,17,08,23,7.50
2014,03,17,08,24,10.60
2014,03,17,08,25,14.40
2014,03,17,08,26,13.30
2014,03,17,08,27,8.20
2014,03,17,08,28,12.30
2014,03,17,08,29,11.30
2014,03,17,08,30,10.10
2014,03,17,08,31,11.40
2014,03,17,08,32,10.50
2014,03,17,08,33,9.40
2014,03,17,08,34,14.10
2014,03,17,08,35,9.10
2014,03,17,08,36,8.70
2014,03,17,08,37,7.30
2014,03,17,08,38,5.90
2014,03,17,08,39,4.40
2014,03,17,08,40,6.10
2014,03,17,08,41,8.20
2014,03,17,08,42,11.40
2014,03,17,08,43,15.50
2014,03,17,08,44,11.10
2014,03,17,08,45,8.80
2014,03,17,08,46,6.40
2014,03,17,08,47,7.20
2014,03,17,08,48,13.00
2014,03,17,08,49,8.60
2014,03,17,08,50,6.80
2014,03,17,08,51,12.40
2014,03,17,08,52,14.00
2014,03,17,08,53,13.10
2014,03,17,08,54,12.10
2014,03,17,08,55,12.20
2014,03,17,08,56,11.60
2014,03,17,08,57,6.90
2014,03,17,08,58,10.40
2014,03,17,08,59,13.30
2014,03,17,09,00,12.90
2014,03,17,09,01,13.80
2014,03,17,09,02,10.50
2014,03,17,09,03,14.20
2014,03,17,09,04,11.20
2014,03,17,09,05,11.50
2014,03,17,09,06,12.90
2014,03,17,09,07,12.50
2014,03,17,09,08,12.10
2014,03,17,09,09,10.90
2014,03,17,09,10,16.80
2014,03,17,09,11,16.10
2014,03,17,09,12,17.40
2014,03,17,09,13,13.50
2014,03,17,09,14,7.50
2014,03,17,09,15,13.50
2014,03,17,09,16,14.50
2014,03,17,09,17,11.80
2014,03,17,09,18,12.10
2014,03,17,09,19,16.00
2014,03,17,09,20,17.80
2014,03,17,09,21,14.30
2014,03,17,09,22,15.50
2014,03,17,09,23,16.10
2014,03,17,09,24,17.30
2014,03,17,09,25,20.60
2014,03,17,09,26,23.70
2014,03,17,09,27,22.60
2014,03,17,09,28,24.10
2014,03,17,09,29,21.80
2014,03,17,09,30,22.20
2014,03,17,09,31,18.50
2014,03,17,09,32,18.00
2014,03,17,09,33,20.40
2014,03,17,09,34,15.20
2014,03,17,09,35,14.90
2014,03,17,09,36,21.00
2014,03,17,09,37,22.20
2014,03,17,09,38,21.70
2014,03,17,09,39,20.10
2014,03,17,09,40,26.50
2014,03,17,09,41,30.80
2014,03,17,09,42,20.20
2014,03,17,09,43,27.30
2014,03,17,09,44,22.50
2014,03,17,09,45,33.30
2014,03,17,09,46,34.80
2014,03,17,09,47,28.80
2014,03,17,09,48,25.20
2014,03,17,09,49,27.10
2014,03,17,09,50,28.10
2014,03,17,09,51,23.10
2014,03,17,09,52,22.10
2014,03,17,09,53,28.30
2014,03,17,09,54,22.90
2014,03,17,09,55,26.10
2014,03,17,09,56,30.00
2014,03,17,09,57,24.50
2014,03,17,09,58,29.70
2014,03,17,09,59,33.30
2014,03,17,10,00,24.50
2014,03,17,10,01,24.50
2014,03,17,10,02,23.30
2014,03,17,10,03,17.80
2014,03,17,10,04,21.60
2014,03,17,10,05,25.60
2014,03,17,10,06,30.30
2014,03,17,10,07,28.40
2014,03,17,10,08,25.00
2014,03,17,10,09,21.60
2014,03,17,10,10,25.50
2014,03,17,10,11,23.00
2014,03,17,10,12,26.60
2014,03,17,10,13,25.10
2014,03,17,10,14,21.20
2014,03,17,10,15,26.30
2014,03,17,10,16,31.10
2014,03,17,10,17,25.60
2014,03,17,10,18,24.10
2014,03,17,10,19,23.90
2014,03,17,10,20,31.50
2014,03,17,10,21,27.30
2014,03,17,10,22,26.70
2014,03,17,10,23,27.60
2014,03,17,10,24,31.70
2014,03,17,10,25,31.80
2014,03,17,10,26,25.60
2014,03,17,10,27,30.00
2014,03,17,10,28,32.40
2014,03,17,10,29,28.30
2014,03,17,10,30,38.70
2014,03,17,10,31,34.80
2014,03,17,10,32,32.10
2014,03,17,10,33,22.20
2014,03,17,10,34,31.40
2014,03,17,10,35,30.80
2014,03,17,10,36,22.40
2014,03,17,10,37,25.90
2014,03,17,10,38,27.50
2014,03,17,10,39,24.50
2014,03,17,10,40,36.90
2014,03,17,10,41,38.70
2014,03,17,10,42,43.30
2014,03,17,10,43,32.30
2014,03,17,10,44,30.90
2014,03,17,10,45,29.50
2014,03,17,10,46,32.80
2014,03,17,10,47,34.90
2014,03,17,10,48,24.50
2014,03,17,10,49,24.90
2014,03,17,10,50,24.40
2014,03,17,10,51,21.70
2014,03,17,10,52,28.60
2014,03,17,10,53,32.90
2014,03,17,10,54,30.10
2014,03,17,10,55,30.60
2014,03,17,10,56,32.10
2014,03,17,10,57,37.00
2014,03,17,10,58,34.30
2014,03,17,10,59,34.70
2014,03,17,11,00,40.50
2014,03,17,11,01,43.50
2014,03,17,11,02,37.10
2014,03,17,11,03,39.10
2014,03,17,11,04,38.20
2014,03,17,11,05,44.80
2014,03,17,11,06,38.60
2014,03,17,11,07,37.80
2014,03,17,11,08,31.60
2014,03,17,11,09,30.80
2014,03,17,11,10,31.50
2014,03,17,11,11,35.60
2014,03,17,11,12,35.40
2014,03,17,11,13,40.10
2014,03,17,11,14,40.00
2014,03,17,11,15,37.80
2014,03,17,11,16,38.20
2014,03,17,11,17,30.00
2014,03,17,11,18,31.60
2014,03,17,11,19,32.50
2014,03,17,11,20,37.00
2014,03,17,11,21,31.70
2014,03,17,11,22,32.60
2014,03,17,11,23,32.00
2014,03,17,11,24,22.00
2014,03,17,11,25,29.90
2014,03,17,11,26,21.80
2014,03,17,11,27,19.40
2014,03,17,11,28,28.20
2014,03,17,11,29,30.40
2014,03,17,11,30,27.20
2014,03,17,11,31,25.40
2014,03,17,11,32,30.90
2014,03,17,11,33,25.40
2014,03,17,11,34,26.40
2014,03,17,11,35,18.60
2014,03,17,11,36,24.90
2014,03,17,11,37,26.90
2014,03,17,11,38,26.10
2014,03,17,11,39,31.70
2014,03,17,11,40,32.50
2014,03,17,11,41,34.40
2014,03,17,11,42,31.10
2014,03,17,11,43,28.60
2014,03,17,11,44,29.00
2014,03,17,11,45,29.30
2014,03,17,11,46,30.80
2014,03,17,11,47,30.10
2014,03,17,11,48,26.10
2014,03,17,11,49,27.20
2014,03,17,11,50,20.60
2014,03,17,11,51,22.00
2014,03,17,11,52,33.00
2014,03,17,11,53,31.80
2014,03,17,11,54,31.20
2014,03,17,11,55,25.80
2014,03,17,11,56,26.20
2014,03,17,11,57,26.20
2014,03,17,11,58,25.00
2014,03,17,11,59,23.90
2014,03,17,12,00,29.00
2014,03,17,12,01,29.00
2014,03,17,12,02,29.50
2014,03,17,12,03,28.00
2014,03,17,12,04,30.10
2014,03,17,12,05,26.70
2014,03,17,12,06,28.00
2014,03,17,12,07,26.00
2014,03,17,12,08,29.90
2014,03,17,12,09,22.60
2014,03,17,12,10,19.00
2014,03,17,12,11,18.80
2014,03,17,12,12,20.70
2014,03,17,12,13,22.00
2014,03,17,12,14,24.10
2014,03,17,12,15,17.80
2014,03,17,12,16,17.50
2014,03,17,12,17,19.90
2014,03,17,12,18,26.60
2014,03,17,12,19,17.70
2014,03,17,12,20,24.30
2014,03,17,12,21,15.60
2014,03,17,12,22,25.90
2014,03,17,12,23,33.50
2014,03,17,12,24,26.50
2014,03,17,12,25,21.80
2014,03,17,12,26,25.00
2014,03,17,12,27,35.40
2014,03,17,12,28,28.20
2014,03,17,12,29,29.00
2014,03,17,12,30,25.70
2014,03,17,12,31,18.80
2014,03,17,12,32,13.70
2014,03,17,12,33,18.60
2014,03,17,12,34,19.60
2014,03,17,12,35,25.30
2014,03,17,12,36,34.30
2014,03,17,12,37,27.70
2014,03,17,12,38,20.50
2014,03,17,12,39,19.00
2014,03,17,12,40,16.30
2014,03,17,12,41,20.40
2014,03,17,12,42,14.30
2014,03,17,12,43,16.00
2014,03,17,12,44,17.00
2014,03,17,12,45,16.40
2014,03,17,12,46,16.70
2014,03,17,12,47,19.40
2014,03,17,12,48,14.30
2014,03,17,12,49,18.50
2014,03,17,12,50,15.10
2014,03,17,12,51,16.00
2014,03,17,12,52,16.60
2014,03,17,12,53,11.50
2014,03,17,12,54,20.00
2014,03,17,12,55,21.20
2014,03,17,12,56,17.60
2014,03,17,12,57,16.10
2014,03,17,12,58,20.30
2014,03,17,12,59,23.20
2014,03,17,13,00,17.60
2014,03,17,13,01,10.40
2014,03,17,13,02,12.70
2014,03,17,13,03,21.80
2014,03,17,13,04,21.30
2014,03,17,13,05,10.90
2014,03,17,13,06,18.80
2014,03,17,13,07,19.10
2014,03,17,13,08,18.90
2014,03,17,13,09,27.60
2014,03,17,13,10,28.80
2014,03,17,13,11,20.30
2014,03,17,13,12,19.50
2014,03,17,13,13,16.20
2014,03,17,13,14,20.60
2014,03,17,13,15,21.00
2014,03,17,13,16,21.40
2014,03,17,13,17,21.80
2014,03,17,13,18,22.90
2014,03,17,13,19,26.90
2014,03,17,13,20,27.10
2014,03,17,13,21,22.00
2014,03,17,13,22,21.70
2014,03,17,13,23,18.40
2014,03,17,13,24,15.90
2014,03,17,13,25,9.10
2014,03,17,13,26,11.90
2014,03,17,13,27,14.40
2014,03,17,13,28,26.80
2014,03,17,13,29,28.80
2014,03,17,13,30,24.40
2014,03,17,13,31,22.70
2014,03,17,13,32,21.90
2014,03,17,13,33,17.80
2014,03,17,13,34,17.00
2014,03,17,13,35,21.90
2014,03,17,13,36,17.00
2014,03,17,13,37,27.40
2014,03,17,13,38,29.50
2014,03,17,13,39,19.40
2014,03,17,13,40,17.20
2014,03,17,13,41,17.40
2014,03,17,13,42,10.50
2014,03,17,13,43,8.60
2014,03,17,13,44,11.70
2014,03,17,13,45,11.00
2014,03,17,13,46,13.20
2014,03,17,13,47,14.70
2014,03,17,13,48,14.30
2014,03,17,13,49,8.90
2014,03,17,13,50,14.10
2014,03,17,13,51,10.50
2014,03,17,13,52,15.00
2014,03,17,13,53,12.60
2014,03,17,13,54,11.40
2014,03,17,13,55,9.60
2014,03,17,13,56,12.10
2014,03,17,13,57,9.40
2014,03,17,13,58,10.60
2014,03,17,13,59,8.30
2014,03,17,14,00,8.70
2014,03,17,14,01,7.40
2014,03,17,14,02,12.30
2014,03,17,14,03,10.90
2014,03,17,14,04,13.00
2014,03,17,14,05,8.90
2014,03,17,14,06,7.40
2014,03,17,14,07,7.30
2014,03,17,14,08,4.40
2014,03,17,14,09,5.90
2014,03,17,14,10,12.30
2014,03,17,14,11,12.70
2014,03,17,14,12,9.80
2014,03,17,14,13,10.60
2014,03,17,14,14,10.60
2014,03,17,14,15,8.70
2014,03,17,14,16,8.40
2014,03,17,14,17,12.80
2014,03,17,14,18,14.30
2014,03,17,14,19,15.10
2014,03,17,14,20,16.20
2014,03,17,14,21,9.00
2014,03,17,14,22,8.30
2014,03,17,14,23,7.90
2014,03,17,14,24,6.50
2014,03,17,14,25,9.80
2014,03,17,14,26,13.80
2014,03,17,14,27,8.80
2014,03,17,14,28,7.00
2014,03,17,14,29,6.00
2014,03,17,14,30,8.60
2014,03,17,14,31,7.00
2014,03,17,14,32,7.60
2014,03,17,14,33,6.40
2014,03,17,14,34,13.80
2014,03,17,14,35,10.10
2014,03,17,14,36,10.30
2014,03,17,14,37,15.20
2014,03,17,14,38,14.40
2014,03,17,14,39,7.90
2014,03,17,14,40,4.60
2014,03,17,14,41,7.00
2014,03,17,14,42,8.90
2014,03,17,14,43,5.50
2014,03,17,14,44,16.90
2014,03,17,14,45,12.20
2014,03,17,14,46,5.80
2014,03,17,14,47,8.10
2014,03,17,14,48,8.10
2014,03,17,14,49,10.30
2014,03,17,14,50,8.70
2014,03,17,14,51,14.50
2014,03,17,14,52,8.60
2014,03,17,14,53,6.80
2014,03,17,14,54,3.60
2014,03,17,14,55,6.50
2014,03,17,14,56,7.00
2014,03,17,14,57,7.70
2014,03,17,14,58,8.10
2014,03,17,14,59,5.00
2014,03,17,15,00,13.80
2014,03,17,15,01,8.80
2014,03,17,15,02,8.80
2014,03,17,15,03,11.10
2014,03,17,15,04,11.40
2014,03,17,15,05,12.60
2014,03,17,15,06,7.00
2014,03,17,15,07,10.10
2014,03,17,15,08,6.30
2014,03,17,15,09,10.30
2014,03,17,15,10,7.90
2014,03,17,15,11,8.60
2014,03,17,15,12,6.50
2014,03,17,15,13,6.80
2014,03,17,15,14,13.50
2014,03,17,15,15,6.40
2014,03,17,15,16,9.70
2014,03,17,15,17,10.30
2014,03,17,15,18,11.90
2014,03,17,15,19,11.50
2014,03,17,15,20,6.30
2014,03,17,15,21,9.10
2014,03,17,15,22,14.60
2014,03,17,15,23,8.00
2014,03,17,15,24,6.90
2014,03,17,15,25,6.40
2014,03,17,15,26,3.30
2014,03,17,15,27,5.80
2014,03,17,15,28,12.70
2014,03,17,15,29,6.20
2014,03,17,15,30,6.30
2014,03,17,15,31,3.20
2014,03,17,15,32,2.10
2014,03,17,15,33,4.70
2014,03,17,15,34,7.40
2014,03,17,15,35,10.90
2014,03,17,15,36,10.20
2014,03,17,15,37,10.30
2014,03,17,15,38,13.30
2014,03,17,15,39,12.30
2014,03,17,15,40,11.70
2014,03,17,15,41,7.30
2014,03,17,15,42,3.80
2014,03,17,15,43,6.70
2014,03,17,15,44,9.00
2014,03,17,15,45,10.10
2014,03,17,15,46,10.90
2014,03,17,15,47,4.20
2014,03,17,15,48,3.30
2014,03,17,15,49,6.80
2014,03,17,15,50,7.90
2014,03,17,15,51,9.40
2014,03,17,15,52,10.10
2014,03,17,15,53,6.30
2014,03,17,15,54,9.80
2014,03,17,15,55,8.40
2014,03,17,15,56,8.50
2014,03,17,15,57,9.90
2014,03,17,15,58,9.20
2014,03,17,15,59,9.40
2014,03,17,16,00,11.70
2014,03,17,16,01,6.10
2014,03,17,16,02,5.80
2014,03,17,16,03,10.10
2014,03,17,16,04,10.00
2014,03,17,16,05,6.70
2014,03,17,16,06,5.20
2014,03,17,16,07,13.50
2014,03,17,16,08,5.40
2014,03,17,16,09,3.10
2014,03,17,16,10,6.90
2014,03,17,16,11,7.10
2014,03,17,16,12,8.70
2014,03,17,16,13,7.40
2014,03,17,16,14,7.90
2014,03,17,16,15,5.60
2014,03,17,16,16,7.80
2014,03,17,16,17,9.70
2014,03,17,16,18,8.20
2014,03,17,16,19,3.90
2014,03,17,16,20,4.10
2014,03,17,16,21,2.30
2014,03,17,16,22,2.00
2014,03,17,16,23,4.10
2014,03,17,16,24,4.80
2014,03,17,16,25,8.30
2014,03,17,16,26,5.90
2014,03,17,16,27,3.80
2014,03,17,16,28,11.50
2014,03,17,16,29,13.50
2014,03,17,16,30,11.30
2014,03,17,16,31,10.60
2014,03,17,16,32,9.50
2014,03,17,16,33,10.20
2014,03,17,16,34,9.10
2014,03,17,16,35,6.20
2014,03,17,16,36,3.80
2014,03,17,16,37,2.30
2014,03,17,16,38,5.80
2014,03,17,16,39,7.60
2014,03,17,16,40,5.00
2014,03,17,16,41,3.30
2014,03,17,16,42,4.30
2014,03,17,16,43,12.50
2014,03,17,16,44,11.90
2014,03,17,16,45,8.60
2014,03,17,16,46,7.30
2014,03,17,16,47,7.60
2014,03,17,16,48,2.80
2014,03,17,16,49,3.50
2014,03,17,16,50,3.60
2014,03,17,16,51,3.50
2014,03,17,16,52,3.40
2014,03,17,16,53,4.90
2014,03,17,16,54,8.10
2014,03,17,16,55,4.70
2014,03,17,16,56,7.80
2014,03,17,16,57,4.40
2014,03,17,16,58,3.10
2014,03,17,16,59,1.60
2014,03,17,17,00,2.10
2014,03,17,17,01,2.40
2014,03,17,17,02,5.50
2014,03,17,17,03,2.10
2014,03,17,17,04,4.50
2014,03,17,17,05,3.40
2014,03,17,17,06,1.90
2014,03,17,17,07,3.80
2014,03,17,17,08,3.00
2014,03,17,17,09,3.20
2014,03,17,17,10,2.50
2014,03,17,17,11,1.40
2014,03,17,17,12,2.40
2014,03,17,17,13,2.10
2014,03,17,17,14,1.60
2014,03,17,17,15,1.70
2014,03,17,17,16,2.20
2014,03,17,17,17,2.60
2014,03,17,17,18,4.60
2014,03,17,17,19,4.50
2014,03,17,17,20,2.70
2014,03,17,17,21,3.70
2014,03,17,17,22,3.20
2014,03,17,17,23,2.00
2014,03,17,17,24,4.80
2014,03,17,17,25,3.90
2014,03,17,17,26,3.60
2014,03,17,17,27,2.20
2014,03,17,17,28,1.70
2014,03,17,17,29,3.40
2014,03,17,17,30,4.50
2014,03,17,17,31,2.70
2014,03,17,17,32,3.40
2014,03,17,17,33,1.80